Harrisburg, IL

7:55 AM CST on December 12, 2019 (GMT -0600)
Harrisburg-Raleigh

Weather History for KHSB - October, 2019

Change the Weather History Date:

Monday, October 7, 2019

  Actual Average (WUND) Record (WUND)
Temperature  
Mean Temperature 59 °F -  
Max Temperature 73 °F - - (-1)
Min Temperature 46 °F - - (-1)
Degree Days  
Heating Degree Days 6    
Growing Degree Days 9 (Base 50)    
Moisture  
Dew Point 45 °F    
Average Humidity 63    
Maximum Humidity 90    
Minimum Humidity 20    
Precipitation  
Precipitation 0.01 in - - ()
Sea Level Pressure  
Sea Level Pressure 30.20 in    
Wind  
Wind Speed 3 mph ()    
Max Wind Speed 10 mph    
Max Gust Speed -    
Visibility 9.4 miles    
Events Rain    
Averages and records for this station are not official NWS values.
T = Trace of Precipitation, MM = Missing Value Source: Averaged Metar Reports

Daily Weather History Graph

Daily Weather History Graph

Search for Another Location

Airport or City:

Astronomy

Oct. 07, 2019 Rise Set
Actual Time 6:54 AM CDT 6:28 PM CDT
Civil Twilight 6:28 AM CDT 6:54 PM CDT
Nautical Twilight 5:58 AM CDT 7:25 PM CDT
Astronomical Twilight 5:27 AM CDT 7:55 PM CDT
Moon 3:42 PM CDT (10/7) 12:55 AM CDT (10/7)
Length of Visible Light 12h 26m
Length of Day
11h 33m
Waxing Gibbous, 69% of the Moon is Illuminated
Oct 7
Waxing Gibbous
Oct 13
Full
Oct 21
Last Quarter
Oct 27
New
Nov 4
First Quarter

Hourly Weather History & Observations

Time (CDT) Temp. Dew Point Humidity Pressure Visibility Wind Dir Wind Speed Gust Speed Precip Events Conditions
12:15 AM 58.1 °F 54.9 °F 89% 30.17 in 10.0 mi Calm Calm - N/A   Overcast
12:35 AM 58.1 °F 54.9 °F 89% 30.17 in 10.0 mi Calm Calm - N/A   Overcast
12:55 AM 58.1 °F 54.9 °F 89% 30.17 in 10.0 mi NNW 3.5 mph - N/A   Overcast
1:15 AM 58.3 °F 55.0 °F 89% 30.18 in 10.0 mi Calm Calm - N/A   Overcast
1:35 AM 58.5 °F 55.2 °F 89% 30.19 in 10.0 mi Calm Calm - N/A Rain Light Rain
1:55 AM 58.3 °F 55.0 °F 89% 30.17 in 10.0 mi Calm Calm - N/A Rain Light Rain
2:15 AM 58.3 °F 55.0 °F 89% 30.17 in 10.0 mi North 3.5 mph - N/A Rain Light Rain
2:35 AM 58.1 °F 55.0 °F 90% 30.16 in 10.0 mi North 4.6 mph - 0.01 in Rain Light Rain
2:55 AM 58.1 °F 54.9 °F 89% 30.17 in 10.0 mi NNW 6.9 mph - 0.01 in   Overcast
3:15 AM 58.1 °F 54.9 °F 89% 30.19 in 10.0 mi NNW 5.8 mph - N/A   Overcast
3:35 AM 58.1 °F 54.7 °F 88% 30.18 in 10.0 mi North 3.5 mph - N/A Rain Light Rain
3:55 AM 57.7 °F 54.5 °F 89% 30.18 in 10.0 mi North 3.5 mph - N/A Rain Light Rain
4:15 AM 57.6 °F 54.5 °F 90% 30.17 in 10.0 mi North 3.5 mph - N/A   Overcast
4:35 AM 57.6 °F 54.5 °F 90% 30.17 in 10.0 mi Calm Calm - N/A   Scattered Clouds
4:55 AM 57.4 °F 54.1 °F 89% 30.16 in 10.0 mi Calm Calm - N/A   Clear
5:15 AM 57.4 °F 54.3 °F 90% 30.17 in 10.0 mi Calm Calm - N/A   Clear
5:35 AM 57.2 °F 54.0 °F 89% 30.17 in 10.0 mi North 3.5 mph - N/A   Clear
5:55 AM 57.7 °F 52.7 °F 83% 30.18 in 10.0 mi North 4.6 mph - N/A   Clear
6:15 AM 57.7 °F 51.3 °F 79% 30.18 in 10.0 mi North 5.8 mph - N/A   Clear
6:35 AM 57.2 °F 50.4 °F 78% 30.19 in 10.0 mi North 5.8 mph - N/A   Clear
6:55 AM 56.7 °F 50.0 °F 78% 30.20 in 10.0 mi North 4.6 mph - N/A   Clear
7:15 AM 56.3 °F 49.6 °F 78% 30.20 in 10.0 mi North 4.6 mph - N/A   Clear
7:35 AM 56.3 °F 49.3 °F 77% 30.20 in 10.0 mi North 4.6 mph - N/A   Scattered Clouds
7:55 AM 56.3 °F 49.1 °F 77% 30.21 in 10.0 mi North 3.5 mph - N/A   Scattered Clouds
8:15 AM 56.3 °F 49.5 °F 78% 30.22 in 10.0 mi Calm Calm - N/A   Clear
8:35 AM 57.2 °F 49.1 °F 74% 30.23 in 10.0 mi NNE 3.5 mph - N/A   Clear
8:55 AM 58.1 °F 48.4 °F 70% 30.23 in 10.0 mi NNE 4.6 mph - N/A   Clear
9:15 AM 59.7 °F 48.4 °F 66% 30.24 in 10.0 mi NNE 4.6 mph - N/A   Clear
9:35 AM 59.9 °F 46.2 °F 61% 30.24 in 10.0 mi NE 6.9 mph - N/A   Clear
9:55 AM 61.7 °F 46.9 °F 58% 30.24 in 10.0 mi NE 8.1 mph - N/A   Clear
10:15 AM 62.6 °F 46.0 °F 55% 30.24 in 10.0 mi NE 5.8 mph - N/A   Clear
10:35 AM 63.7 °F 44.2 °F 49% 30.25 in 10.0 mi NNE 8.1 mph - N/A   Clear
10:55 AM 63.7 °F 45.0 °F 51% 30.26 in 10.0 mi North 10.4 mph - N/A   Clear
11:15 AM 63.1 °F 44.6 °F 51% 30.26 in 10.0 mi NNE 6.9 mph - N/A   Clear
11:35 AM 65.1 °F 45.3 °F 49% 30.25 in 10.0 mi North 6.9 mph - N/A   Clear
11:55 AM 66.2 °F 42.1 °F 41% 30.25 in 10.0 mi NNE 9.2 mph - N/A   Clear
12:15 PM 66.2 °F 40.5 °F 39% 30.25 in 10.0 mi NNE 6.9 mph - N/A   Clear
12:35 PM 67.5 °F 39.7 °F 36% 30.24 in 10.0 mi NE 8.1 mph - N/A   Clear
12:55 PM 68.9 °F 37.9 °F 32% 30.24 in 4.0 mi NE 5.8 mph - N/A   Haze
1:15 PM 70.0 °F 37.6 °F 31% 30.23 in 2.5 mi ENE 8.1 mph - N/A   Haze
1:35 PM 70.3 °F 34.5 °F 27% 30.22 in 5.0 mi ENE 8.1 mph - N/A   Haze
1:55 PM 71.1 °F 34.0 °F 26% 30.21 in 7.0 mi NNE 9.2 mph - N/A   Clear
2:15 PM 71.6 °F 33.4 °F 25% 30.20 in 10.0 mi ENE 6.9 mph - N/A   Clear
2:35 PM 72.0 °F 32.5 °F 23% 30.20 in 10.0 mi NNE 4.6 mph - N/A   Clear
2:55 PM 72.3 °F 31.8 °F 22% 30.19 in 10.0 mi ENE 3.5 mph - N/A   Clear
3:15 PM 72.7 °F 30.2 °F 21% 30.19 in 10.0 mi North 10.4 mph - N/A   Clear
3:35 PM 72.3 °F 29.5 °F 20% 30.18 in 7.0 mi ENE 6.9 mph - N/A   Clear
3:55 PM 72.7 °F 28.6 °F 20% 30.18 in 7.0 mi NE 5.8 mph - N/A   Clear
4:15 PM 72.7 °F 30.4 °F 21% 30.18 in 10.0 mi NNE 5.8 mph - N/A   Clear
4:35 PM 72.1 °F 30.0 °F 21% 30.17 in 10.0 mi Calm Calm - N/A   Clear
4:55 PM 72.3 °F 30.0 °F 21% 30.17 in 10.0 mi North 4.6 mph - N/A   Clear
5:15 PM 71.8 °F 29.7 °F 21% 30.17 in 10.0 mi NE 3.5 mph - N/A   Clear
5:35 PM 71.1 °F 30.2 °F 22% 30.17 in 2.0 mi NNE 4.6 mph - N/A   Haze
5:55 PM 69.8 °F 32.0 °F 25% 30.17 in 10.0 mi NNE 3.5 mph - N/A   Clear
6:15 PM 68.0 °F 35.1 °F 30% 30.17 in 10.0 mi NNE 3.5 mph - N/A   Clear
6:35 PM 64.8 °F 35.2 °F 33% 30.18 in 10.0 mi Calm Calm - N/A   Clear
6:55 PM 64.2 °F 34.5 °F 33% 30.18 in 10.0 mi North 3.5 mph - N/A   Clear
7:15 PM 59.0 °F 39.9 °F 49% 30.18 in 10.0 mi Calm Calm - N/A   Clear
7:35 PM 55.2 °F 45.9 °F 71% 30.19 in 7.0 mi Calm Calm - N/A   Clear
7:55 PM 53.6 °F 45.3 °F 74% 30.19 in 10.0 mi Calm Calm - N/A   Clear
8:15 PM 53.2 °F 45.0 °F 73% 30.20 in 10.0 mi Calm Calm - N/A   Clear
8:35 PM 52.3 °F 45.7 °F 78% 30.20 in 10.0 mi Calm Calm - N/A   Clear
8:55 PM 50.9 °F 45.1 °F 81% 30.20 in 10.0 mi Calm Calm - N/A   Clear
9:15 PM 52.7 °F 46.4 °F 79% 30.21 in 7.0 mi Calm Calm - N/A   Clear
9:35 PM 50.4 °F 45.3 °F 83% 30.21 in 10.0 mi Calm Calm - N/A   Clear
9:55 PM 50.0 °F 45.5 °F 85% 30.22 in 10.0 mi Calm Calm - N/A   Clear
10:15 PM 49.3 °F 46.0 °F 89% 30.22 in 10.0 mi Calm Calm - N/A   Clear
10:35 PM 49.1 °F 45.7 °F 88% 30.22 in 10.0 mi Calm Calm - N/A   Clear
10:55 PM 48.4 °F 45.1 °F 89% 30.22 in 10.0 mi Calm Calm - N/A   Clear
11:15 PM 47.5 °F 44.4 °F 89% 30.22 in 10.0 mi Calm Calm - N/A   Clear
11:35 PM 46.6 °F 43.7 °F 90% 30.22 in 10.0 mi Calm Calm - N/A   Clear
11:55 PM 47.3 °F 44.1 °F 88% 30.22 in 10.0 mi Calm Calm - N/A   Clear